• Em Portugal
  • Lista de países
  • Para 7 dias
  • Temperatura da água
  • Mapas de satélite
  • Mapa do tempo
  • Widgets de tempo
  • user-avatar
    Iniciar Sessão

    Previsão horária em Rangpur

    Hoje, 22 Setembro, Sexta-feira

    Tempo Temperatura Precipitação Vento Pressão Humidade
    00:00 +29°C° 0 mm 1 m/s 752 mmHg 85%
    01:00 +29°C° 0,5 mm 1 m/s 752 mmHg 86%
    02:00 +28°C° 0,5 mm 2 m/s 751 mmHg 87%
    03:00 +28°C° 0,5 mm 2 m/s 751 mmHg 88%
    04:00 +28°C° 1,2 mm 2 m/s 751 mmHg 89%
    05:00 +28°C° 1,2 mm 2 m/s 752 mmHg 90%
    06:00 +28°C° 1,2 mm 2 m/s 752 mmHg 90%
    07:00 +29°C° 2,4 mm 2 m/s 752 mmHg 85%
    08:00 +30°C° 2,4 mm 2 m/s 752 mmHg 80%
    09:00 +32°C° 2,4 mm 2 m/s 753 mmHg 75%
    10:00 +32°C° 2,1 mm 2 m/s 752 mmHg 73%
    11:00 +34°C° 2,1 mm 2 m/s 752 mmHg 70%
    12:00 +34°C° 2,1 mm 2 m/s 752 mmHg 67%
    13:00 +35°C° 0,5 mm 2 m/s 751 mmHg 66%
    14:00 +35°C° 0,5 mm 2 m/s 750 mmHg 65%
    15:00 +35°C° 0,5 mm 2 m/s 750 mmHg 63%
    16:00 +33°C° 0 mm 1 m/s 750 mmHg 66%
    17:00 +32°C° 0 mm 1 m/s 750 mmHg 70%
    18:00 +32°C° 0 mm 1 m/s 749 mmHg 73%
    19:00 +31°C° 0 mm 1 m/s 750 mmHg 74%
    20:00 +31°C° 0 mm 1 m/s 751 mmHg 75%
    21:00 +31°C° 0 mm 1 m/s 751 mmHg 75%
    22:00 +30°C° 0,6 mm 1 m/s 751 mmHg 78%
    23:00 +30°C° 0,6 mm 1 m/s 751 mmHg 80%

    Amanhã, 23 Setembro, Sábado

    Tempo Temperatura Precipitação Vento Pressão Humidade
    00:00 +30°C° 0,6 mm 1 m/s 751 mmHg 82%
    01:00 +29°C° 2,2 mm 1 m/s 751 mmHg 84%
    02:00 +29°C° 2,2 mm 1 m/s 751 mmHg 86%
    03:00 +29°C° 2,2 mm 1 m/s 751 mmHg 88%
    04:00 +29°C° 1,9 mm 1 m/s 751 mmHg 89%
    05:00 +28°C° 1,9 mm 1 m/s 751 mmHg 89%
    06:00 +28°C° 1,9 mm 1 m/s 751 mmHg 90%
    07:00 +29°C° 1,7 mm 2 m/s 752 mmHg 86%
    08:00 +31°C° 1,7 mm 2 m/s 752 mmHg 81%
    09:00 +32°C° 1,7 mm 2 m/s 753 mmHg 77%
    10:00 +32°C° 1,3 mm 2 m/s 753 mmHg 74%
    11:00 +34°C° 1,3 mm 2 m/s 753 mmHg 70%
    12:00 +35°C° 1,3 mm 2 m/s 753 mmHg 67%
    13:00 +34°C° 0,2 mm 1 m/s 752 mmHg 66%
    14:00 +34°C° 0,2 mm 1 m/s 751 mmHg 64%
    15:00 +32°C° 0,2 mm 0 m/s 751 mmHg 63%
    16:00 +31°C° 0 mm 0 m/s 750 mmHg 66%
    17:00 +31°C° 0 mm 0 m/s 750 mmHg 70%
    18:00 +30°C° 0 mm 0 m/s 750 mmHg 73%
    19:00 +32°C° 0 mm 1 m/s 751 mmHg 74%
    20:00 +31°C° 0 mm 1 m/s 751 mmHg 76%
    21:00 +31°C° 0 mm 2 m/s 752 mmHg 77%
    22:00 +30°C° 0 mm 2 m/s 752 mmHg 78%
    23:00 +30°C° 0 mm 2 m/s 752 mmHg 80%

    Depois de amanhã, 24 Setembro, Domingo

    Tempo Temperatura Precipitação Vento Pressão Humidade
    00:00 +30°C° 0 mm 2 m/s 752 mmHg 82%
    01:00 +29°C° 0,6 mm 1 m/s 751 mmHg 83%
    02:00 +29°C° 0,6 mm 1 m/s 751 mmHg 85%
    03:00 +29°C° 0,6 mm 1 m/s 751 mmHg 87%
    04:00 +29°C° 1,2 mm 1 m/s 751 mmHg 88%
    05:00 +28°C° 1,2 mm 1 m/s 751 mmHg 89%
    06:00 +28°C° 1,2 mm 1 m/s 751 mmHg 90%
    07:00 +29°C° 0,2 mm 1 m/s 752 mmHg 87%
    08:00 +30°C° 0,2 mm 1 m/s 752 mmHg 83%
    09:00 +31°C° 0,2 mm 2 m/s 753 mmHg 79%
    10:00 +32°C° 0,5 mm 1 m/s 752 mmHg 74%
    11:00 +33°C° 0,5 mm 1 m/s 752 mmHg 69%
    12:00 +32°C° 0,5 mm 0 m/s 752 mmHg 64%
    13:00 +33°C° 0 mm 0 m/s 751 mmHg 63%
    14:00 +33°C° 0 mm 0 m/s 750 mmHg 62%
    15:00 +33°C° 0 mm 0 m/s 749 mmHg 61%
    16:00 +32°C° 0,1 mm 0 m/s 749 mmHg 64%
    17:00 +31°C° 0,1 mm 0 m/s 749 mmHg 67%
    18:00 +31°C° 0,1 mm 0 m/s 749 mmHg 71%
    19:00 +30°C° 0,1 mm 0 m/s 750 mmHg 72%
    20:00 +30°C° 0,1 mm 0 m/s 751 mmHg 74%
    21:00 +29°C° 0,1 mm 0 m/s 751 mmHg 76%
    22:00 +29°C° 0,8 mm 0 m/s 751 mmHg 78%
    23:00 +28°C° 0,8 mm 0 m/s 751 mmHg 80%

    25 Setembro, Segunda-feira

    Tempo Temperatura Precipitação Vento Pressão Humidade
    00:00 +28°C° 0,8 mm 0 m/s 751 mmHg 82%
    01:00 +30°C° 0,1 mm 1 m/s 750 mmHg 82%
    02:00 +30°C° 0,1 mm 1 m/s 750 mmHg 83%
    03:00 +29°C° 0,1 mm 1 m/s 750 mmHg 84%
    04:00 +29°C° 0 mm 1 m/s 750 mmHg 84%
    05:00 +29°C° 0 mm 1 m/s 750 mmHg 85%
    06:00 +29°C° 0 mm 1 m/s 750 mmHg 86%
    07:00 +30°C° 0 mm 1 m/s 751 mmHg 81%
    08:00 +31°C° 0 mm 1 m/s 751 mmHg 76%
    09:00 +33°C° 0 mm 1 m/s 752 mmHg 72%
    10:00 +34°C° 0,1 mm 1 m/s 751 mmHg 66%
    11:00 +35°C° 0,1 mm 1 m/s 751 mmHg 61%
    12:00 +36°C° 0,1 mm 1 m/s 751 mmHg 56%
    13:00 +36°C° 0 mm 1 m/s 750 mmHg 55%
    14:00 +36°C° 0 mm 1 m/s 749 mmHg 55%
    15:00 +36°C° 0 mm 1 m/s 748 mmHg 54%
    16:00 +35°C° 0 mm 1 m/s 748 mmHg 58%
    17:00 +34°C° 0 mm 1 m/s 748 mmHg 61%
    18:00 +33°C° 0 mm 1 m/s 748 mmHg 64%
    19:00 +33°C° 0 mm 1 m/s 749 mmHg 65%
    20:00 +32°C° 0 mm 1 m/s 749 mmHg 66%
    21:00 +30°C° 0 mm 0 m/s 750 mmHg 68%
    22:00 +29°C° 0 mm 0 m/s 750 mmHg 69%
    23:00 +29°C° 0 mm 0 m/s 750 mmHg 70%

    26 Setembro, Terça-feira

    Tempo Temperatura Precipitação Vento Pressão Humidade
    00:00 +29°C° 0 mm 0 m/s 750 mmHg 72%
    01:00 +29°C° 0 mm 0 m/s 749 mmHg 73%
    02:00 +28°C° 0 mm 0 m/s 749 mmHg 75%
    03:00 +30°C° 0 mm 1 m/s 749 mmHg 76%
    04:00 +30°C° 0 mm 1 m/s 749 mmHg 78%
    05:00 +29°C° 0 mm 1 m/s 750 mmHg 79%
    06:00 +29°C° 0 mm 1 m/s 750 mmHg 80%
    07:00 +30°C° 0 mm 1 m/s 751 mmHg 76%
    08:00 +32°C° 0 mm 1 m/s 751 mmHg 73%
    09:00 +34°C° 0 mm 2 m/s 752 mmHg 69%
    10:00 +34°C° 0 mm 1 m/s 751 mmHg 64%
    11:00 +35°C° 0 mm 1 m/s 751 mmHg 60%
    12:00 +36°C° 0 mm 1 m/s 750 mmHg 55%
    13:00 +37°C° 0 mm 1 m/s 750 mmHg 54%
    14:00 +37°C° 0 mm 1 m/s 749 mmHg 53%
    15:00 +37°C° 0 mm 1 m/s 748 mmHg 52%
    16:00 +36°C° 0 mm 1 m/s 749 mmHg 55%
    17:00 +35°C° 0 mm 1 m/s 749 mmHg 58%
    18:00 +34°C° 0 mm 1 m/s 749 mmHg 61%
    19:00 +33°C° 0 mm 1 m/s 749 mmHg 63%
    20:00 +33°C° 0 mm 1 m/s 750 mmHg 64%
    21:00 +32°C° 0 mm 1 m/s 750 mmHg 65%
    22:00 +32°C° 0 mm 1 m/s 750 mmHg 67%
    23:00 +30°C° 0 mm 0 m/s 750 mmHg 68%

    27 Setembro, Quarta-feira

    Tempo Temperatura Precipitação Vento Pressão Humidade
    00:00 +29°C° 0 mm 0 m/s 750 mmHg 69%
    01:00 +29°C° 0 mm 0 m/s 750 mmHg 71%
    02:00 +29°C° 0 mm 0 m/s 750 mmHg 72%
    03:00 +28°C° 0 mm 0 m/s 749 mmHg 73%
    04:00 +28°C° 0 mm 0 m/s 750 mmHg 74%
    05:00 +28°C° 0 mm 0 m/s 750 mmHg 75%
    06:00 +28°C° 0 mm 0 m/s 750 mmHg 76%
    07:00 +31°C° 0 mm 1 m/s 750 mmHg 73%
    08:00 +32°C° 0 mm 1 m/s 751 mmHg 69%
    09:00 +34°C° 0 mm 1 m/s 751 mmHg 66%
    10:00 +35°C° 0 mm 1 m/s 751 mmHg 62%
    11:00 +36°C° 0 mm 1 m/s 751 mmHg 58%
    12:00 +37°C° 0 mm 1 m/s 750 mmHg 53%
    13:00 +35°C° 0 mm 0 m/s 750 mmHg 52%
    14:00 +35°C° 0 mm 0 m/s 749 mmHg 50%
    15:00 +36°C° 0 mm 0 m/s 749 mmHg 49%
    16:00 +35°C° 0 mm 0 m/s 749 mmHg 52%
    17:00 +36°C° 0 mm 1 m/s 749 mmHg 56%
    18:00 +35°C° 0 mm 1 m/s 750 mmHg 59%
    19:00 +34°C° 0 mm 1 m/s 750 mmHg 61%
    20:00 +34°C° 0 mm 1 m/s 751 mmHg 63%
    21:00 +33°C° 0 mm 1 m/s 751 mmHg 66%
    22:00 +34°C° 0 mm 2 m/s 751 mmHg 68%
    23:00 +32°C° 0 mm 2 m/s 751 mmHg 71%
    Mostrar mais